| time (UTC) | temp F | wind direction | speed MPH | gust MPH | rain 1hr in | rain 24hr in | rain mn in | humidity % | barometer mb |
| 20260906004527 | 72 | 318 | 3.0 | 4.0 | 0.00 | 0.00 | 0.00 | 47 | 1015.2 |
| 20260906003033 | 72 | 322 | 2.0 | 4.0 | 0.00 | 0.00 | 0.00 | 47 | 1015.3 |
| 20260906001541 | 72 | 88 | 0.0 | 3.0 | 0.00 | 0.00 | 0.00 | 47 | 1015.2 |
| 20260906000024 | 71 | 325 | 0.0 | 7.0 | 0.00 | 0.00 | 0.00 | 47 | 1015.4 |
| 20260905234534 | 71 | 340 | 5.0 | 8.0 | 0.00 | 0.00 | 0.00 | 47 | 1015.3 |
| 20260905233028 | 72 | 298 | 3.0 | 5.0 | 0.00 | 0.00 | 0.00 | 46 | 1015.4 |
| 20260905231511 | 72 | 321 | 2.0 | 6.0 | 0.00 | 0.00 | 0.00 | 45 | 1015.5 |
| 20260905230020 | 73 | 339 | 2.0 | 8.0 | 0.00 | 0.01 | 0.00 | 45 | 1015.6 |
| 20260905224526 | 73 | 303 | 5.0 | 7.0 | 0.00 | 0.03 | 0.00 | 45 | 1015.5 |
| 20260905223027 | 70 | 333 | 2.0 | 6.0 | 0.00 | 0.05 | 0.00 | 49 | 1015.8 |
| 20260905221539 | 70 | 302 | 0.0 | 7.0 | 0.00 | 0.08 | 0.00 | 48 | 1015.7 |
| 20260905220018 | 71 | 349 | 0.0 | 4.0 | 0.00 | 0.11 | 0.00 | 47 | 1015.9 |
| 20260905214523 | 69 | 240 | 0.0 | 7.0 | 0.00 | 0.12 | 0.00 | 48 | 1015.9 |
| 20260905213028 | 70 | 188 | 4.0 | 10.0 | 0.00 | 0.12 | 0.00 | 48 | 1016.0 |
| 20260905211527 | 71 | 257 | 3.0 | 6.0 | 0.00 | 0.12 | 0.00 | 48 | 1015.9 |
| 20260905210015 | 70 | 260 | 1.0 | 8.0 | 0.00 | 0.12 | 0.00 | 52 | 1016.2 |
| 20260905204542 | 69 | 1.0 | 3.0 | 0.00 | 0.12 | 0.00 | 54 | 1016.3 | |
| 20260905203031 | 71 | 299 | 2.0 | 4.0 | 0.00 | 0.12 | 0.00 | 55 | 1016.5 |
| 20260905201507 | 69 | 203 | 3.0 | 7.0 | 0.00 | 0.12 | 0.00 | 60 | 1016.3 |
| 20260905200011 | 68 | 325 | 4.0 | 6.0 | 0.00 | 0.12 | 0.00 | 61 | 1016.4 |
| 20260905194519 | 67 | 281 | 4.0 | 7.0 | 0.00 | 0.12 | 0.00 | 64 | 1016.6 |
| 20260905193025 | 67 | 273 | 2.0 | 5.0 | 0.00 | 0.12 | 0.00 | 66 | 1016.9 |
| 20260905191531 | 66 | 267 | 2.0 | 6.0 | 0.00 | 0.12 | 0.00 | 69 | 1016.9 |
| 20260905190025 | 65 | 360 | 2.0 | 6.0 | 0.00 | 0.12 | 0.00 | 72 | 1017.2 |
| 20260905184535 | 64 | 352 | 1.0 | 6.0 | 0.00 | 0.12 | 0.00 | 71 | 1017.4 |
| 20260905183021 | 63 | 321 | 3.0 | 5.0 | 0.00 | 0.12 | 0.00 | 74 | 1017.6 |
| 20260905181528 | 62 | 31 | 2.0 | 5.0 | 0.00 | 0.12 | 0.00 | 75 | 1017.6 |
| 20260905180047 | 60 | 242 | 1.0 | 4.0 | 0.00 | 0.12 | 0.00 | 79 | 1017.5 |
| 20260905174534 | 60 | 43 | 1.0 | 3.0 | 0.00 | 0.12 | 0.00 | 79 | 1017.6 |
| 20260905173020 | 59 | 76 | 3.0 | 6.0 | 0.00 | 0.12 | 0.00 | 81 | 1017.8 |
| 20260905171535 | 59 | 55 | 2.0 | 4.0 | 0.00 | 0.12 | 0.00 | 82 | 1017.7 |
| 20260905170030 | 58 | 352 | 2.0 | 5.0 | 0.00 | 0.12 | 0.00 | 84 | 1017.6 |
| 20260905164533 | 58 | 57 | 1.0 | 3.0 | 0.00 | 0.12 | 0.00 | 84 | 1017.7 |
| 20260905163018 | 58 | 71 | 1.0 | 4.0 | 0.00 | 0.12 | 0.00 | 85 | 1017.8 |
| 20260905161537 | 58 | 36 | 2.0 | 3.0 | 0.00 | 0.12 | 0.00 | 86 | 1017.9 |
| 20260905160046 | 57 | 310 | 1.0 | 3.0 | 0.00 | 0.12 | 0.00 | 85 | 1017.8 |
| 20260905154532 | 58 | 53 | 1.0 | 3.0 | 0.00 | 0.12 | 0.00 | 87 | 1017.7 |
| 20260905153014 | 57 | 90 | 1.0 | 3.0 | 0.00 | 0.12 | 0.00 | 88 | 1017.8 |
| 20260905151528 | 56 | 98 | 1.0 | 2.0 | 0.00 | 0.12 | 0.00 | 89 | 1017.8 |
| 20260905150027 | 54 | 99 | 0.0 | 2.0 | 0.00 | 0.12 | 0.00 | 91 | 1018.0 |
| 20260905144533 | 53 | 99 | 0.0 | 2.0 | 0.00 | 0.12 | 0.00 | 92 | 1017.7 |
| 20260905143035 | 53 | 99 | 0.0 | 0.0 | 0.00 | 0.12 | 0.00 | 92 | 1017.6 |
| 20260905141515 | 53 | 99 | 0.0 | 0.0 | 0.00 | 0.12 | 0.00 | 91 | 1017.6 |
| 20260905140032 | 53 | 99 | 0.0 | 0.0 | 0.00 | 0.12 | 0.00 | 92 | 1017.6 |
| 20260905134529 | 53 | 99 | 0.0 | 1.0 | 0.00 | 0.12 | 0.00 | 92 | 1017.7 |
| 20260905133031 | 53 | 99 | 1.0 | 2.0 | 0.00 | 0.13 | 0.00 | 91 | 1017.5 |
| 20260905131532 | 53 | 98 | 0.0 | 0.0 | 0.00 | 0.13 | 0.00 | 91 | 1017.3 |
| 20260905130018 | 53 | 98 | 0.0 | 3.0 | 0.00 | 0.13 | 0.00 | 91 | 1017.3 |
| 20260905124536 | 53 | 98 | 0.0 | 3.0 | 0.00 | 0.13 | 0.00 | 91 | 1017.2 |
| 20260905123034 | 54 | 98 | 0.0 | 2.0 | 0.00 | 0.13 | 0.00 | 91 | 1017.3 |
| 20260905121534 | 54 | 99 | 1.0 | 3.0 | 0.00 | 0.14 | 0.00 | 91 | 1017.1 |
| 20260905120052 | 54 | 99 | 0.0 | 2.0 | 0.00 | 0.15 | 0.00 | 90 | 1017.1 |
| 20260905114512 | 55 | 121 | 0.0 | 2.0 | 0.00 | 0.16 | 0.00 | 90 | 1017.0 |
| 20260905113014 | 54 | 107 | 0.0 | 2.0 | 0.00 | 0.17 | 0.00 | 91 | 1017.1 |
| 20260905111525 | 54 | 107 | 1.0 | 2.0 | 0.00 | 0.17 | 0.00 | 91 | 1017.1 |
| 20260905110020 | 54 | 107 | 0.0 | 2.0 | 0.00 | 0.17 | 0.00 | 92 | 1017.0 |
| 20260905104513 | 54 | 123 | 0.0 | 0.0 | 0.00 | 0.17 | 0.00 | 91 | 1017.0 |
| 20260905103023 | 54 | 123 | 0.0 | 2.0 | 0.00 | 0.17 | 0.00 | 92 | 1017.2 |
| 20260905101516 | 53 | 148 | 1.0 | 3.0 | 0.00 | 0.17 | 0.00 | 92 | 1017.1 |
| 20260905100011 | 54 | 122 | 2.0 | 3.0 | 0.00 | 0.17 | 0.00 | 92 | 1017.0 |
| 20260905094516 | 54 | 102 | 0.0 | 0.0 | 0.00 | 0.17 | 0.00 | 92 | 1016.8 |
| 20260905093017 | 54 | 102 | 0.0 | 0.0 | 0.00 | 0.17 | 0.00 | 92 | 1017.1 |
| 20260905091518 | 54 | 102 | 0.0 | 0.0 | 0.00 | 0.17 | 0.00 | 92 | 1016.8 |
| 20260905090018 | 54 | 102 | 1.0 | 2.0 | 0.00 | 0.17 | 0.00 | 92 | 1016.6 |
| 20260905084516 | 54 | 102 | 0.0 | 2.0 | 0.00 | 0.17 | 0.00 | 92 | 1016.8 |
| 20260905083018 | 55 | 102 | 1.0 | 2.0 | 0.00 | 0.17 | 0.00 | 91 | 1016.6 |
| 20260905081521 | 55 | 97 | 0.0 | 0.0 | 0.00 | 0.17 | 0.00 | 91 | 1016.5 |
| 20260905080028 | 56 | 97 | 0.0 | 0.0 | 0.00 | 0.17 | 0.00 | 91 | 1016.5 |
| 20260905074520 | 56 | 97 | 0.0 | 0.0 | 0.00 | 0.17 | 0.00 | 91 | 1016.5 |
| 20260905073028 | 55 | 96 | 0.0 | 0.0 | 0.00 | 0.17 | 0.00 | 91 | 1016.6 |
| 20260905071523 | 56 | 96 | 0.0 | 0.0 | 0.00 | 0.17 | 0.00 | 91 | 1016.4 |
| 20260905070044 | 56 | 96 | 0.0 | 0.0 | 0.00 | 0.17 | 0.00 | 91 | 1016.4 |
| 20260905064537 | 56 | 96 | 0.0 | 2.0 | 0.00 | 0.17 | 0.17 | 91 | 1016.2 |
| 20260905063027 | 56 | 96 | 0.0 | 2.0 | 0.00 | 0.17 | 0.17 | 91 | 1016.1 |
| 20260905061524 | 56 | 96 | 0.0 | 3.0 | 0.00 | 0.17 | 0.17 | 90 | 1016.0 |
| 20260905060025 | 56 | 133 | 0.0 | 2.0 | 0.00 | 0.17 | 0.17 | 90 | 1016.0 |
| 20260905054534 | 56 | 133 | 0.0 | 2.0 | 0.00 | 0.17 | 0.17 | 90 | 1016.2 |
| 20260905053025 | 56 | 134 | 2.0 | 5.0 | 0.00 | 0.17 | 0.17 | 90 | 1015.8 |
| 20260905051532 | 56 | 86 | 0.0 | 0.0 | 0.00 | 0.17 | 0.17 | 90 | 1015.8 |
| 20260905050025 | 57 | 75 | 0.0 | 2.0 | 0.00 | 0.17 | 0.17 | 89 | 1015.6 |
| 20260905044529 | 57 | 188 | 0.0 | 2.0 | 0.00 | 0.17 | 0.17 | 88 | 1015.6 |
| 20260905043025 | 57 | 129 | 0.0 | 2.0 | 0.00 | 0.17 | 0.17 | 89 | 1015.6 |
| 20260905041527 | 57 | 123 | 2.0 | 2.0 | 0.00 | 0.17 | 0.17 | 88 | 1015.7 |
| 20260905040026 | 57 | 123 | 0.0 | 2.0 | 0.00 | 0.17 | 0.17 | 88 | 1015.5 |
| 20260905034510 | 57 | 123 | 1.0 | 3.0 | 0.00 | 0.17 | 0.17 | 87 | 1015.5 |
| 20260905033006 | 57 | 115 | 0.0 | 2.0 | 0.00 | 0.17 | 0.17 | 86 | 1015.2 |
| 20260905031513 | 57 | 115 | 3.0 | 3.0 | 0.00 | 0.17 | 0.17 | 85 | 1015.2 |
| 20260905030021 | 58 | 69 | 0.0 | 0.0 | 0.00 | 0.17 | 0.17 | 84 | 1015.1 |
| 20260905024529 | 58 | 68 | 0.0 | 2.0 | 0.00 | 0.17 | 0.17 | 81 | 1015.2 |
| 20260905023004 | 59 | 67 | 1.0 | 3.0 | 0.00 | 0.17 | 0.17 | 79 | 1015.1 |
| 20260905021517 | 60 | 67 | 2.0 | 3.0 | 0.00 | 0.17 | 0.17 | 78 | 1015.2 |
| 20260905020018 | 61 | 53 | 0.0 | 0.0 | 0.00 | 0.17 | 0.17 | 77 | 1015.0 |
| 20260905014522 | 61 | 44 | 1.0 | 4.0 | 0.00 | 0.17 | 0.17 | 77 | 1014.8 |
| 20260905013027 | 61 | 94 | 1.0 | 4.0 | 0.00 | 0.17 | 0.17 | 77 | 1014.6 |
| 20260905011510 | 61 | 62 | 1.0 | 3.0 | 0.00 | 0.17 | 0.17 | 79 | 1014.3 |
| 20260905010018 | 61 | 101 | 1.0 | 4.0 | 0.00 | 0.17 | 0.17 | 82 | 1014.5 |